Weather History for Kalaeloa, HI

Change the Weather History Date:

Sunday, April 20, 2014

  Actual Average (PHNL) Record (PHNL)
Temperature  
Mean Temperature 76 °F 76 °F  
Max Temperature 82 °F 83 °F 88 °F (1986)
Min Temperature 70 °F 70 °F 60 °F (1966)
Degree Days  
Heating Degree Days 0 0  
Month to date heating degree days 0  
Since 1 July heating degree days 0  
Cooling Degree Days 11 11  
Month to date cooling degree days 220  
Year to date cooling degree days 995  
Growing Degree Days 26 (Base 50)    
Moisture  
Dew Point 65 °F    
Average Humidity 72    
Maximum Humidity 90    
Minimum Humidity 53    
Precipitation  
Precipitation 0.01 in 0.01 in 1.16 in (1978)
Month to date precipitation 0.48  
Year to date precipitation 6.80  
Snow  
Snow 0.00 in - - ()
Month to date snowfall  
Since 1 July snowfall  
Snow Depth -    
Sea Level Pressure  
Sea Level Pressure 30.15 in    
Wind  
Wind Speed 5 mph (ENE)    
Max Wind Speed 13 mph    
Max Gust Speed 23 mph    
Visibility 10 miles    
Events Rain    
T = Trace of Precipitation, MM = Missing Value Source: NWS Daily Summary

Daily Weather History Graph

Daily Weather History Graph

Search for Another Location

Airport:

Trip Planner

Search our weather history database for the weather conditions in past years. The results will help you decide how hot, cold, wet, or windy it might be!

Date:

Astronomy

Apr. 20, 2014 Rise Set
Actual Time 6:09 AM HST 6:53 PM HST
Civil Twilight 5:46 AM HST 7:16 PM HST
Nautical Twilight 5:19 AM HST 7:43 PM HST
Astronomical Twilight 4:52 AM HST 8:10 PM HST
Moon No Moon Rise 10:55 AM HST
Length of Visible Light 13h 30m
Length of Day
12h 44m
Waning Gibbous, 66% of the Moon is Illuminated
Apr 20
Waning Gibbous
Apr 21
Last Quarter
Apr 28
New
May 6
First Quarter
May 14
Full

Hourly Weather History & Observations

Time (HST) Temp. Heat Index Dew Point Humidity Pressure Visibility Wind Dir Wind Speed Gust Speed Precip Events Conditions
12:53 AM 73.0 °F - 62.1 °F 68% 30.15 in 10.0 mi Variable 3.5 mph - N/A   Mostly Cloudy
1:53 AM 72.0 °F - 63.0 °F 73% 30.14 in 10.0 mi Calm Calm - N/A   Partly Cloudy
2:53 AM 71.1 °F - 64.9 °F 81% 30.14 in 10.0 mi Variable 3.5 mph - 0.00 in Rain Light Rain
3:53 AM 70.0 °F - 63.0 °F 78% 30.12 in 10.0 mi Variable 4.6 mph - 0.00 in   Clear
4:53 AM 72.0 °F - 63.0 °F 73% 30.11 in 10.0 mi Variable 4.6 mph - N/A   Partly Cloudy
5:53 AM 72.0 °F - 64.9 °F 78% 30.12 in 10.0 mi ENE 5.8 mph - 0.00 in   Scattered Clouds
6:09 AM 71.6 °F - 64.4 °F 78% 30.11 in 10.0 mi Variable 6.9 mph - N/A   Partly Cloudy
6:53 AM 73.0 °F - 63.0 °F 71% 30.14 in 10.0 mi ENE 5.8 mph - N/A   Scattered Clouds
7:53 AM 73.0 °F - 66.0 °F 79% 30.17 in 10.0 mi NNE 8.1 mph - N/A   Scattered Clouds
8:53 AM 77.0 °F - 66.0 °F 69% 30.18 in 10.0 mi Variable 4.6 mph - N/A   Partly Cloudy
9:53 AM 78.1 °F - 64.9 °F 64% 30.18 in 10.0 mi ENE 8.1 mph 19.6 mph 0.00 in   Mostly Cloudy
10:53 AM 82.9 °F 84.6 °F 64.9 °F 54% 30.17 in 10.0 mi ENE 8.1 mph - N/A   Partly Cloudy
11:53 AM 82.9 °F 84.4 °F 64.0 °F 53% 30.16 in 10.0 mi ENE 11.5 mph 21.9 mph N/A   Partly Cloudy
12:53 PM 82.0 °F 83.4 °F 64.0 °F 54% 30.14 in 10.0 mi East 12.7 mph 21.9 mph N/A   Mostly Cloudy
1:53 PM 82.9 °F 84.6 °F 64.9 °F 54% 30.13 in 10.0 mi ENE 8.1 mph 18.4 mph N/A   Mostly Cloudy
2:53 PM 81.0 °F 82.5 °F 64.0 °F 56% 30.11 in 10.0 mi Variable 6.9 mph 19.6 mph N/A   Scattered Clouds
3:53 PM 79.0 °F - 66.0 °F 64% 30.09 in 10.0 mi ENE 10.4 mph 23.0 mph N/A   Clear
4:53 PM 79.0 °F - 64.0 °F 60% 30.11 in 10.0 mi NE 9.2 mph 18.4 mph N/A   Partly Cloudy
5:53 PM 75.9 °F - 66.0 °F 71% 30.13 in 10.0 mi Variable 5.8 mph - N/A   Mostly Cloudy
6:53 PM 75.0 °F - 64.9 °F 71% 30.14 in 10.0 mi Variable 5.8 mph - N/A   Partly Cloudy
7:53 PM 73.9 °F - 66.0 °F 76% 30.17 in 10.0 mi Variable 5.8 mph - N/A   Scattered Clouds
8:53 PM 73.0 °F - 66.0 °F 79% 30.18 in 10.0 mi Variable 4.6 mph - N/A   Scattered Clouds
9:53 PM 71.1 °F - 68.0 °F 90% 30.19 in 10.0 mi Calm Calm - 0.00 in   Scattered Clouds
10:15 PM 71.6 °F - 68.0 °F 88% 30.18 in 5.0 mi East 5.8 mph - 0.00 in Rain Light Rain
10:29 PM 71.6 °F - 68.0 °F 88% 30.18 in 9.0 mi Variable 3.5 mph - 0.01 in Rain Light Rain
10:53 PM 71.1 °F - 68.0 °F 90% 30.20 in 10.0 mi Variable 4.6 mph - 0.01 in   Overcast
11:53 PM 71.1 °F - 66.9 °F 87% 30.19 in 10.0 mi Variable 4.6 mph - 0.00 in   Mostly Cloudy